Time,TemperatureF,DewpointF,PressureIn,WindDirection,WindDirectionDegrees,WindSpeedMPH,WindSpeedGustMPH,Humidity,HourlyPrecipIn,Conditions,Clouds,dailyrainin,SoftwareType,DateUTC
2013-04-22 00:02:00,49.0,37.0,30.33,East,93,2.0,6.0,64,0.00,,,0.03,,2013-04-22 05:02:00,
2013-04-22 00:12:00,49.0,37.0,30.33,East,93,2.0,6.0,64,0.00,,,0.03,,2013-04-22 05:12:00,
2013-04-22 00:22:00,49.0,37.0,30.33,East,96,4.0,6.0,62,0.00,,,0.03,,2013-04-22 05:22:00,
2013-04-22 00:32:00,49.0,37.0,30.33,East,96,5.0,7.0,62,0.00,,,0.03,,2013-04-22 05:32:00,
2013-04-22 00:42:00,49.0,37.0,30.33,East,96,5.0,7.0,62,0.00,,,0.03,,2013-04-22 05:42:00,
2013-04-22 00:52:00,49.0,37.0,30.32,ESE,103,6.0,9.0,63,0.00,,,0.03,,2013-04-22 05:52:00,
2013-04-22 01:02:00,49.0,36.0,30.32,ESE,106,5.0,8.0,61,0.00,,,0.03,,2013-04-22 06:02:00,
2013-04-22 01:12:00,49.0,36.0,30.32,ESE,106,5.0,8.0,61,0.00,,,0.03,,2013-04-22 06:12:00,
2013-04-22 01:21:00,48.0,36.0,30.32,ESE,111,4.0,6.0,64,0.00,,,0.03,,2013-04-22 06:21:00,
2013-04-22 01:32:00,47.0,37.0,30.32,ESE,102,4.0,7.0,67,0.00,,,0.03,,2013-04-22 06:32:00,
2013-04-22 01:42:00,47.0,37.0,30.32,ESE,102,4.0,7.0,67,0.00,,,0.03,,2013-04-22 06:42:00,
2013-04-22 01:52:00,47.0,37.0,30.32,ESE,109,2.0,6.0,68,0.00,,,0.03,,2013-04-22 06:52:00,
2013-04-22 02:01:00,47.0,37.0,30.31,ESE,111,3.0,5.0,67,0.00,,,0.03,,2013-04-22 07:01:00,
2013-04-22 02:12:00,47.0,37.0,30.31,ESE,111,3.0,5.0,67,0.00,,,0.03,,2013-04-22 07:12:00,
2013-04-22 02:21:00,47.0,36.0,30.31,ESE,113,4.0,6.0,66,0.00,,,0.03,,2013-04-22 07:21:00,
2013-04-22 02:32:00,47.0,37.0,30.31,ESE,106,2.0,5.0,67,0.00,,,0.03,,2013-04-22 07:32:00,
2013-04-22 02:42:00,47.0,37.0,30.31,ESE,106,2.0,5.0,67,0.00,,,0.03,,2013-04-22 07:42:00,
2013-04-22 02:52:00,46.0,36.0,30.30,ESE,107,2.0,4.0,67,0.00,,,0.03,,2013-04-22 07:52:00,
2013-04-22 03:02:00,45.0,35.0,30.29,ESE,107,2.0,4.0,69,0.00,,,0.03,,2013-04-22 08:02:00,
2013-04-22 03:11:00,45.0,35.0,30.29,ESE,107,2.0,4.0,69,0.00,,,0.03,,2013-04-22 08:11:00,
2013-04-22 03:22:00,45.0,36.0,30.29,ESE,111,2.0,5.0,70,0.00,,,0.03,,2013-04-22 08:22:00,
2013-04-22 03:32:00,45.0,36.0,30.29,East,96,1.0,5.0,70,0.00,,,0.03,,2013-04-22 08:32:00,
2013-04-22 03:42:00,45.0,36.0,30.29,East,96,1.0,5.0,70,0.00,,,0.03,,2013-04-22 08:42:00,
2013-04-22 03:53:00,44.0,35.0,30.29,East,91,1.0,4.0,70,0.00,,,0.03,,2013-04-22 08:53:00,
2013-04-22 04:01:00,44.0,35.0,30.29,East,92,0.0,4.0,71,0.00,,,0.02,,2013-04-22 09:01:00,
2013-04-22 04:11:00,44.0,35.0,30.29,East,92,0.0,4.0,71,0.00,,,0.02,,2013-04-22 09:11:00,
2013-04-22 04:21:00,44.0,36.0,30.29,East,100,0.0,1.0,72,0.00,,,0.02,,2013-04-22 09:21:00,
2013-04-22 04:33:00,43.0,35.0,30.28,East,100,0.0,1.0,72,0.00,,,0.02,,2013-04-22 09:33:00,
2013-04-22 04:42:00,43.0,35.0,30.28,East,100,0.0,1.0,72,0.00,,,0.02,,2013-04-22 09:42:00,
2013-04-22 04:52:00,43.0,34.0,30.28,East,99,0.0,1.0,71,0.00,,,0.02,,2013-04-22 09:52:00,
2013-04-22 05:03:00,43.0,34.0,30.28,ENE,69,0.0,2.0,70,0.00,,,0.02,,2013-04-22 10:03:00,
2013-04-22 05:12:00,43.0,34.0,30.28,ENE,69,0.0,2.0,70,0.00,,,0.02,,2013-04-22 10:12:00,
2013-04-22 05:22:00,43.0,34.0,30.28,ENE,69,0.0,2.0,70,0.00,,,0.02,,2013-04-22 10:22:00,
2013-04-22 05:32:00,43.0,34.0,30.28,ENE,69,0.0,2.0,70,0.00,,,0.02,,2013-04-22 10:32:00,
2013-04-22 05:42:00,43.0,34.0,30.28,ENE,69,0.0,2.0,70,0.00,,,0.02,,2013-04-22 10:42:00,
2013-04-22 05:52:00,43.0,34.0,30.28,ENE,69,0.0,1.0,70,0.00,,,0.02,,2013-04-22 10:52:00,
2013-04-22 06:02:00,43.0,34.0,30.28,ENE,70,0.0,2.0,70,0.00,,,0.02,,2013-04-22 11:02:00,
2013-04-22 06:12:00,43.0,34.0,30.28,ENE,70,0.0,2.0,70,0.00,,,0.02,,2013-04-22 11:12:00,
2013-04-22 06:22:00,42.0,33.0,30.28,ENE,70,0.0,2.0,71,0.00,,,0.02,,2013-04-22 11:22:00,
2013-04-22 06:32:00,42.0,33.0,30.28,ENE,70,1.0,3.0,71,0.01,,,0.03,,2013-04-22 11:32:00,
2013-04-22 06:42:00,42.0,33.0,30.28,ENE,70,1.0,3.0,71,0.01,,,0.03,,2013-04-22 11:42:00,
2013-04-22 06:52:00,42.0,34.0,30.28,ENE,70,1.0,4.0,73,0.01,,,0.03,,2013-04-22 11:52:00,
2013-04-22 07:02:00,43.0,35.0,30.28,ENE,74,1.0,5.0,74,0.01,,,0.03,,2013-04-22 12:02:00,
2013-04-22 07:12:00,43.0,35.0,30.28,ENE,74,1.0,5.0,74,0.01,,,0.03,,2013-04-22 12:12:00,
2013-04-22 07:21:00,44.0,35.0,30.29,East,94,2.0,5.0,71,0.01,,,0.03,,2013-04-22 12:21:00,
2013-04-22 07:32:00,46.0,35.0,30.29,East,99,6.0,8.0,65,0.00,,,0.03,,2013-04-22 12:32:00,
2013-04-22 07:42:00,46.0,35.0,30.29,East,99,6.0,8.0,65,0.00,,,0.03,,2013-04-22 12:42:00,
2013-04-22 07:52:00,47.0,36.0,30.29,East,91,5.0,9.0,66,0.00,,,0.03,,2013-04-22 12:52:00,
2013-04-22 08:01:00,48.0,36.0,30.29,ESE,121,7.0,11.0,63,0.00,,,0.03,,2013-04-22 13:01:00,
2013-04-22 08:11:00,48.0,36.0,30.29,ESE,121,7.0,11.0,63,0.00,,,0.03,,2013-04-22 13:11:00,
2013-04-22 08:22:00,49.0,37.0,30.29,ESE,115,7.0,11.0,62,0.00,,,0.03,,2013-04-22 13:22:00,
2013-04-22 08:31:00,49.0,36.0,30.29,SE,130,7.0,11.0,61,0.00,,,0.03,,2013-04-22 13:31:00,
2013-04-22 08:41:00,49.0,36.0,30.29,SE,130,7.0,11.0,61,0.00,,,0.03,,2013-04-22 13:41:00,
2013-04-22 08:53:00,50.0,37.0,30.29,SSE,153,7.0,10.0,61,0.00,,,0.03,,2013-04-22 13:53:00,
2013-04-22 09:02:00,51.0,38.0,30.29,ESE,122,7.0,11.0,61,0.00,,,0.03,,2013-04-22 14:02:00,
2013-04-22 09:11:00,51.0,38.0,30.29,ESE,122,7.0,11.0,61,0.00,,,0.03,,2013-04-22 14:11:00,
2013-04-22 09:21:00,52.0,39.0,30.28,ESE,121,6.0,10.0,60,0.00,,,0.03,,2013-04-22 14:21:00,
2013-04-22 09:33:00,53.0,40.0,30.28,SE,129,3.0,9.0,61,0.00,,,0.03,,2013-04-22 14:33:00,
2013-04-22 09:42:00,53.0,40.0,30.28,SE,129,3.0,9.0,61,0.00,,,0.03,,2013-04-22 14:42:00,
2013-04-22 09:52:00,55.0,41.0,30.27,SSE,156,6.0,9.0,60,0.00,,,0.03,,2013-04-22 14:52:00,
2013-04-22 10:01:00,56.0,43.0,30.27,SSE,168,4.0,8.0,61,0.00,,,0.03,,2013-04-22 15:01:00,
2013-04-22 10:12:00,56.0,43.0,30.27,SSE,168,4.0,8.0,61,0.00,,,0.03,,2013-04-22 15:12:00,
2013-04-22 10:22:00,57.0,42.0,30.27,ESE,105,5.0,7.0,58,0.00,,,0.03,,2013-04-22 15:22:00,
2013-04-22 10:33:00,58.0,43.0,30.27,SE,142,4.0,9.0,57,0.00,,,0.03,,2013-04-22 15:33:00,
2013-04-22 10:43:00,58.0,43.0,30.27,SE,142,4.0,9.0,57,0.00,,,0.03,,2013-04-22 15:43:00,
2013-04-22 10:53:00,59.0,44.0,30.27,ESE,105,4.0,8.0,58,0.00,,,0.03,,2013-04-22 15:53:00,
2013-04-22 11:02:00,60.0,44.0,30.26,South,183,5.0,11.0,56,0.00,,,0.03,,2013-04-22 16:02:00,
2013-04-22 11:12:00,60.0,44.0,30.26,South,183,5.0,11.0,56,0.00,,,0.03,,2013-04-22 16:12:00,
2013-04-22 11:23:00,61.0,44.0,30.26,South,176,5.0,10.0,54,0.00,,,0.03,,2013-04-22 16:23:00,
2013-04-22 11:33:00,62.0,46.0,30.25,South,178,7.0,10.0,56,0.00,,,0.03,,2013-04-22 16:33:00,
2013-04-22 11:42:00,62.0,46.0,30.25,South,178,7.0,10.0,56,0.00,,,0.03,,2013-04-22 16:42:00,
2013-04-22 11:52:00,63.0,47.0,30.24,SSE,160,5.0,10.0,55,0.00,,,0.03,,2013-04-22 16:52:00,
2013-04-22 12:02:00,63.0,48.0,30.24,SE,146,6.0,10.0,57,0.00,,,0.03,,2013-04-22 17:02:00,
2013-04-22 12:12:00,63.0,48.0,30.24,SE,146,6.0,10.0,57,0.00,,,0.03,,2013-04-22 17:12:00,
2013-04-22 12:22:00,64.0,47.0,30.23,SSE,161,4.0,11.0,53,0.00,,,0.03,,2013-04-22 17:22:00,
2013-04-22 12:32:00,65.0,45.0,30.23,South,186,6.0,10.0,49,0.00,,,0.03,,2013-04-22 17:32:00,
2013-04-22 12:42:00,65.0,45.0,30.23,South,186,6.0,10.0,49,0.00,,,0.03,,2013-04-22 17:42:00,
2013-04-22 12:52:00,66.0,48.0,30.22,SE,144,8.0,14.0,53,0.00,,,0.03,,2013-04-22 17:52:00,
2013-04-22 13:01:00,66.0,48.0,30.21,SSE,167,3.0,11.0,52,0.00,,,0.02,,2013-04-22 18:01:00,
2013-04-22 13:12:00,66.0,48.0,30.21,SSE,167,3.0,11.0,52,0.00,,,0.02,,2013-04-22 18:12:00,
2013-04-22 13:21:00,67.0,46.0,30.20,SSE,158,3.0,9.0,46,0.00,,,0.02,,2013-04-22 18:21:00,
2013-04-22 13:32:00,68.0,51.0,30.19,South,175,5.0,11.0,55,0.00,,,0.02,,2013-04-22 18:32:00,
2013-04-22 13:42:00,68.0,51.0,30.19,South,175,5.0,11.0,55,0.00,,,0.02,,2013-04-22 18:42:00,
2013-04-22 13:52:00,68.0,49.0,30.19,SSE,157,7.0,11.0,51,0.01,,,0.03,,2013-04-22 18:52:00,
2013-04-22 14:01:00,68.0,44.0,30.19,SE,134,5.0,9.0,42,0.01,,,0.03,,2013-04-22 19:01:00,
2013-04-22 14:12:00,68.0,44.0,30.19,SE,134,5.0,9.0,42,0.01,,,0.03,,2013-04-22 19:12:00,
2013-04-22 14:22:00,68.0,48.0,30.18,South,190,6.0,11.0,49,0.01,,,0.03,,2013-04-22 19:22:00,
2013-04-22 14:32:00,68.0,48.0,30.18,South,190,6.0,11.0,49,0.01,,,0.03,,2013-04-22 19:32:00,
2013-04-22 14:42:00,68.0,48.0,30.18,South,190,6.0,11.0,49,0.01,,,0.03,,2013-04-22 19:42:00,
2013-04-22 14:53:00,69.0,46.0,30.16,South,176,2.0,12.0,44,0.00,,,0.03,,2013-04-22 19:53:00,
2013-04-22 15:02:00,69.0,48.0,30.16,SE,143,5.0,12.0,48,0.00,,,0.03,,2013-04-22 20:02:00,
2013-04-22 15:11:00,69.0,48.0,30.16,SE,143,5.0,12.0,48,0.00,,,0.03,,2013-04-22 20:11:00,
2013-04-22 15:22:00,69.0,46.0,30.15,SSE,148,8.0,13.0,44,0.00,,,0.03,,2013-04-22 20:22:00,
2013-04-22 15:32:00,69.0,46.0,30.15,SE,139,9.0,16.0,44,0.00,,,0.03,,2013-04-22 20:32:00,
2013-04-22 15:42:00,69.0,46.0,30.15,SE,139,9.0,16.0,44,0.00,,,0.03,,2013-04-22 20:42:00,
2013-04-22 15:52:00,69.0,47.0,30.14,SSE,167,7.0,14.0,45,0.00,,,0.03,,2013-04-22 20:52:00,
2013-04-22 16:02:00,69.0,47.0,30.13,South,188,7.0,13.0,45,0.00,,,0.02,,2013-04-22 21:02:00,
2013-04-22 16:11:00,69.0,47.0,30.13,South,188,7.0,13.0,45,0.00,,,0.02,,2013-04-22 21:11:00,
2013-04-22 16:21:00,69.0,48.0,30.12,South,169,8.0,13.0,47,0.00,,,0.02,,2013-04-22 21:21:00,
2013-04-22 16:32:00,69.0,47.0,30.11,SSE,157,10.0,13.0,45,0.00,,,0.02,,2013-04-22 21:32:00,
2013-04-22 16:42:00,69.0,47.0,30.11,SSE,157,10.0,13.0,45,0.00,,,0.02,,2013-04-22 21:42:00,
2013-04-22 16:53:00,69.0,48.0,30.11,SE,146,7.0,12.0,48,0.00,,,0.02,,2013-04-22 21:53:00,
2013-04-22 17:02:00,69.0,50.0,30.10,South,178,7.0,16.0,50,0.00,,,0.02,,2013-04-22 22:02:00,
2013-04-22 17:12:00,69.0,50.0,30.10,South,178,7.0,16.0,50,0.00,,,0.02,,2013-04-22 22:12:00,
2013-04-22 17:22:00,69.0,47.0,30.09,SSE,147,7.0,14.0,46,0.00,,,0.02,,2013-04-22 22:22:00,
2013-04-22 17:33:00,69.0,48.0,30.09,SE,129,7.0,16.0,48,0.00,,,0.02,,2013-04-22 22:33:00,
2013-04-22 17:42:00,69.0,48.0,30.09,SE,129,7.0,16.0,48,0.00,,,0.02,,2013-04-22 22:42:00,
2013-04-22 17:52:00,69.0,49.0,30.08,SE,140,9.0,13.0,49,0.00,,,0.02,,2013-04-22 22:52:00,
2013-04-22 18:02:00,68.0,48.0,30.08,SSE,167,7.0,12.0,49,0.00,,,0.02,,2013-04-22 23:02:00,
2013-04-22 18:11:00,68.0,48.0,30.08,SSE,167,7.0,12.0,49,0.00,,,0.02,,2013-04-22 23:11:00,
2013-04-22 18:21:00,68.0,49.0,30.08,SSE,150,6.0,11.0,50,0.00,,,0.02,,2013-04-22 23:21:00,
2013-04-22 18:32:00,67.0,49.0,30.08,SW,236,6.0,12.0,52,0.00,,,0.02,,2013-04-22 23:32:00,
2013-04-22 18:42:00,67.0,49.0,30.08,SW,236,6.0,12.0,52,0.00,,,0.02,,2013-04-22 23:42:00,
2013-04-22 18:52:00,66.0,49.0,30.07,SSE,156,4.0,8.0,55,0.00,,,0.02,,2013-04-22 23:52:00,
2013-04-22 19:02:00,65.0,50.0,30.07,SSE,150,2.0,5.0,59,0.00,,,0.02,,2013-04-23 00:02:00,
2013-04-22 19:12:00,65.0,50.0,30.07,SSE,150,2.0,5.0,59,0.00,,,0.02,,2013-04-23 00:12:00,
2013-04-22 19:21:00,64.0,49.0,30.07,SE,140,4.0,6.0,59,0.00,,,0.02,,2013-04-23 00:21:00,
2013-04-22 19:31:00,64.0,50.0,30.07,SE,138,2.0,3.0,61,0.00,,,0.02,,2013-04-23 00:31:00,
2013-04-22 19:42:00,64.0,50.0,30.07,SE,138,2.0,3.0,61,0.00,,,0.02,,2013-04-23 00:42:00,
2013-04-22 19:52:00,63.0,49.0,30.07,SE,138,3.0,6.0,61,0.00,,,0.02,,2013-04-23 00:52:00,
2013-04-22 20:01:00,62.0,49.0,30.07,ESE,119,2.0,5.0,62,0.00,,,0.02,,2013-04-23 01:01:00,
2013-04-22 20:11:00,62.0,49.0,30.07,ESE,119,2.0,5.0,62,0.00,,,0.02,,2013-04-23 01:11:00,
2013-04-22 20:21:00,61.0,49.0,30.07,ESE,121,2.0,4.0,64,0.00,,,0.02,,2013-04-23 01:21:00,
2013-04-22 20:32:00,61.0,48.0,30.08,SE,126,4.0,6.0,62,0.00,,,0.02,,2013-04-23 01:32:00,
2013-04-22 20:42:00,61.0,48.0,30.08,SE,126,4.0,6.0,62,0.00,,,0.02,,2013-04-23 01:42:00,
2013-04-22 20:52:00,61.0,49.0,30.08,SE,126,3.0,5.0,64,0.00,,,0.02,,2013-04-23 01:52:00,
2013-04-22 21:01:00,60.0,49.0,30.08,SE,133,0.0,5.0,66,0.00,,,0.02,,2013-04-23 02:01:00,
2013-04-22 21:12:00,60.0,49.0,30.08,SE,133,0.0,5.0,66,0.00,,,0.02,,2013-04-23 02:12:00,
2013-04-22 21:21:00,59.0,48.0,30.08,SE,133,1.0,4.0,67,0.00,,,0.02,,2013-04-23 02:21:00,
2013-04-22 21:32:00,59.0,47.0,30.08,SE,128,4.0,6.0,65,0.00,,,0.02,,2013-04-23 02:32:00,
2013-04-22 21:42:00,59.0,47.0,30.08,SE,128,4.0,6.0,65,0.00,,,0.02,,2013-04-23 02:42:00,
2013-04-22 21:52:00,59.0,48.0,30.09,SE,140,1.0,7.0,66,0.00,,,0.02,,2013-04-23 02:52:00,
2013-04-22 22:01:00,58.0,47.0,30.09,SE,135,1.0,5.0,68,0.00,,,0.02,,2013-04-23 03:01:00,
2013-04-22 22:11:00,58.0,47.0,30.09,SE,135,1.0,5.0,68,0.00,,,0.02,,2013-04-23 03:11:00,
2013-04-22 22:21:00,58.0,47.0,30.09,SE,134,3.0,5.0,67,0.00,,,0.02,,2013-04-23 03:21:00,
2013-04-22 22:33:00,58.0,47.0,30.09,SSE,156,2.0,5.0,67,0.00,,,0.02,,2013-04-23 03:33:00,
2013-04-22 22:43:00,58.0,47.0,30.09,SSE,156,2.0,5.0,67,0.00,,,0.02,,2013-04-23 03:43:00,
2013-04-22 22:53:00,58.0,48.0,30.09,SSE,156,2.0,4.0,70,0.00,,,0.02,,2013-04-23 03:53:00,
2013-04-22 23:03:00,56.0,47.0,30.09,SSE,156,1.0,3.0,71,0.00,,,0.02,,2013-04-23 04:03:00,
2013-04-22 23:12:00,56.0,47.0,30.09,SSE,156,1.0,3.0,71,0.00,,,0.02,,2013-04-23 04:12:00,
2013-04-22 23:23:00,57.0,47.0,30.09,SSE,156,3.0,5.0,70,0.00,,,0.02,,2013-04-23 04:23:00,
2013-04-22 23:33:00,57.0,48.0,30.09,SSE,156,2.0,5.0,71,0.00,,,0.02,,2013-04-23 04:33:00,
2013-04-22 23:43:00,57.0,48.0,30.09,SSE,156,2.0,5.0,71,0.00,,,0.02,,2013-04-23 04:43:00,
2013-04-22 23:53:00,57.0,48.0,30.09,SSE,153,4.0,6.0,71,0.00,,,0.02,,2013-04-23 04:53:00,